This demonstration page uses our WeatherBlox Daily Observations layout. Learn more.

41.55636, -103.73856

Hourly Observations for September 11, 2017

Temp ( °F °C ) Dew Point ( °F °C ) Humidity (%) Winds ( mph kmh ) Pressure ( in mb ) Visibility ( mi km ) Precip ( " mm )
12:53 am 00:53 Clear 71 21.7 53 11.7 53 53 W 7 11 29.99 1016 10 16.0934 0 0
1:53 am 01:53 Clear 69 20.6 53 11.7 57 57 SSW 3 6 30 1016 10 16.0934 0 0
2:53 am 02:53 Clear 66 18.9 54 12.2 65 65 N 5 7 30 1016 10 16.0934 0 0
3:53 am 03:53 Clear 66 18.9 53 11.7 63 63 NNW 7 11 30.01 1016 10 16.0934 0 0
4:53 am 04:53 Mostly Clear 68 20 53 11.7 59 59 NNW 7 11 30.02 1017 10 16.0934 0 0
5:53 am 05:53 Clear 64 17.8 54 12.2 70 70 WSW 3 6 30.04 1017 10 16.0934 0 0.0254
6:53 am 06:53 Sunny 62 16.7 54 12.2 75 75 Calm 30.08 1019 10 16.0934 0 0
7:53 am 07:53 Sunny 67 19.4 54 12.2 63 63 Calm 30.08 1019 10 16.0934 0 0
8:53 am 08:53 Sunny 74 23.3 54 12.2 50 50 W 7 11 30.07 1018 10 16.0934 0 0
9:53 am 09:53 Sunny 79 26.1 54 12.2 42 42 NW 7 11 30.08 1019 10 16.0934 0 0
10:53 am 10:53 Sunny 82 27.8 54 12.2 38 38 WNW 9 15 30.08 1019 10 16.0934 0 0
11:53 am 11:53 Sunny 86 30 53 11.7 32 32 W 6 9 30.05 1018 10 16.0934 0 0
12:53 pm 12:53 Sunny 90 32.2 52 11.1 27 27 VRB 3 6 30.03 1017 10 16.0934 0 0
1:53 pm 13:53 Mostly Sunny 92 33.3 53 11.7 27 27 VRB 6 9 30.01 1016 10 16.0934 0 0
2:53 pm 14:53 Sunny 91 32.8 52 11.1 26 26 VRB 7 11 29.99 1016 10 16.0934 0 0
3:53 pm 15:53 Sunny 91 32.8 50 10 25 25 VRB 5 7 29.98 1015 10 16.0934 0 0
4:33 pm 16:33 Sunny 88 31.1 54 12.2 31 31 ENE 8 13 29.8 1009 10 16.0934 0 0
4:53 pm 16:53 Sunny 86 30 55 12.8 35 35 ENE 9 15 29.98 1015 10 16.0934 0 0
5:53 pm 17:53 Sunny 89 31.7 53 11.7 29 29 E 7 11 29.98 1015 10 16.0934 0 0
6:53 pm 18:53 Sunny 78 25.6 58 14.4 50 50 ENE 8 13 30 1016 10 16.0934 0 0
7:53 pm 19:53 Clear 74 23.3 57 13.9 56 56 ENE 7 11 30 1016 10 16.0934 0 0
8:53 pm 20:53 Clear 73 22.8 57 13.9 57 57 SSE 3 6 29.98 1015 10 16.0934 0 0
9:53 pm 21:53 Clear 68 20 57 13.9 68 68 NNE 3 6 29.99 1016 10 16.0934 0 0
10:53 pm 22:53 Clear 68 20 57 13.9 68 68 ENE 5 7 29.98 1015 10 16.0934 0 0
11:53 pm 23:53 Clear 66 18.9 55 12.8 68 68 E 3 6 29.97 1015 10 16.0934 0 0

Powered by AerisWeather